Weather History for Macomb, IL

Change the Weather History Date:

Thursday, February 28, 2013

  Actual Average (KBRL) Record (KBRL)
Temperature  
Mean Temperature 31 °F 35 °F  
Max Temperature 33 °F 44 °F 69 °F (1932)
Min Temperature 28 °F 26 °F -7 °F (1962)
Degree Days  
Heating Degree Days 34 30  
Month to date heating degree days 976  
Since 1 July heating degree days 4378  
Cooling Degree Days 0 0  
Month to date cooling degree days 0  
Year to date cooling degree days 0  
Moisture  
Dew Point 30 °F    
Average Humidity 94    
Maximum Humidity 100    
Minimum Humidity 88    
Precipitation  
Precipitation 0.01 in 0.08 in 0.54 in (1951)
Month to date precipitation 1.62  
Year to date precipitation 2.86  
Sea Level Pressure  
Sea Level Pressure 30.01 in    
Wind  
Wind Speed 12 mph (NW)    
Max Wind Speed 15 mph    
Max Gust Speed 18 mph    
Visibility 7 miles    
Events Snow    
T = Trace of Precipitation, MM = Missing Value Source: NWS Daily Summary

Daily Weather History Graph

Daily Weather History Graph

Search for Another Location

Airport:

Trip Planner

Search our weather history database for the weather conditions in past years. The results will help you decide how hot, cold, wet, or windy it might be!

Date:

Astronomy

Feb. 28, 2013 Rise Set
Actual Time 6:37 AM CST 5:53 PM CST
Civil Twilight 6:10 AM CST 6:20 PM CST
Nautical Twilight 5:38 AM CST 6:52 PM CST
Astronomical Twilight 5:06 AM CST 7:23 PM CST
Moon 9:21 PM CST (2/28) 7:46 AM CST (2/28)
Length of Visible Light 12h 10m
Length of Day
11h 15m
Waning Gibbous, 90% of the Moon is Illuminated
Feb 28
Waning Gibbous
Mar 4
Last Quarter
Mar 11
New
Mar 19
First Quarter
Mar 27
Full

Hourly Weather History & Observations

Time (CST) Temp. Windchill Dew Point Humidity Pressure Visibility Wind Dir Wind Speed Gust Speed Precip Events Conditions
12:15 AM 32.0 °F 22.1 °F 31.1 °F 96% 29.86 in 7.0 mi WNW 13.8 mph - N/A   Overcast
12:35 AM 32.0 °F 22.1 °F 31.1 °F 96% 29.86 in 7.0 mi WNW 13.8 mph - N/A   Overcast
12:55 AM 32.0 °F 21.6 °F 31.1 °F 96% 29.87 in 7.0 mi WNW 15.0 mph - N/A   Overcast
1:15 AM 32.0 °F 22.1 °F 31.3 °F 97% 29.87 in 5.0 mi NW 13.8 mph - N/A Snow Light Snow
1:35 AM 32.0 °F 21.6 °F 31.1 °F 96% 29.88 in 5.0 mi NW 15.0 mph - N/A Snow Light Snow
1:55 AM 32.0 °F 22.1 °F 31.1 °F 96% 29.88 in 4.0 mi NW 13.8 mph - N/A Snow Light Snow
2:15 AM 32.0 °F 22.5 °F 31.1 °F 96% 29.88 in 5.0 mi NW 12.7 mph - N/A   Overcast
2:35 AM 32.0 °F 21.6 °F 31.1 °F 96% 29.88 in 10.0 mi NW 15.0 mph - N/A   Overcast
2:55 AM 32.0 °F 22.5 °F 30.9 °F 96% 29.88 in 7.0 mi NW 12.7 mph - N/A   Overcast
3:15 AM 32.0 °F 22.1 °F 30.7 °F 95% 29.88 in 10.0 mi NW 13.8 mph - N/A   Overcast
3:35 AM 32.0 °F 22.1 °F 30.6 °F 94% 29.89 in 10.0 mi NW 13.8 mph - N/A   Overcast
3:55 AM 32.0 °F 23.6 °F 30.6 °F 94% 29.90 in 10.0 mi NW 10.4 mph - N/A   Overcast
4:15 AM 32.0 °F 22.1 °F 30.4 °F 94% 29.90 in 10.0 mi NW 13.8 mph - N/A   Overcast
4:35 AM 32.0 °F 22.5 °F 30.2 °F 93% 29.90 in 10.0 mi NW 12.7 mph - N/A   Overcast
4:55 AM 32.0 °F 23.6 °F 30.2 °F 93% 29.92 in 10.0 mi NW 10.4 mph - N/A   Overcast
5:15 AM 32.0 °F 22.1 °F 30.0 °F 92% 29.92 in 10.0 mi NW 13.8 mph - N/A   Overcast
5:35 AM 32.0 °F 22.1 °F 29.8 °F 92% 29.93 in 10.0 mi NW 13.8 mph - N/A   Overcast
5:55 AM 32.0 °F 22.5 °F 29.8 °F 92% 29.94 in 10.0 mi NW 12.7 mph - N/A   Overcast
6:15 AM 32.0 °F 22.5 °F 30.0 °F 92% 29.95 in 10.0 mi NW 12.7 mph - N/A   Overcast
6:35 AM 31.8 °F 22.3 °F 30.0 °F 93% 29.96 in 10.0 mi NW 12.7 mph - N/A   Overcast
6:55 AM 31.8 °F 23.3 °F 29.8 °F 92% 29.96 in 10.0 mi NW 10.4 mph - N/A   Overcast
7:15 AM 31.6 °F 22.6 °F 29.8 °F 93% 29.97 in 10.0 mi NW 11.5 mph - N/A   Overcast
7:35 AM 31.5 °F 22.3 °F 29.7 °F 93% 29.98 in 10.0 mi NW 11.5 mph - N/A   Overcast
7:55 AM 31.5 °F 21.8 °F 29.8 °F 94% 29.99 in 10.0 mi NW 12.7 mph - N/A   Overcast
8:15 AM 31.6 °F 22.1 °F 29.7 °F 92% 29.99 in 7.0 mi NW 12.7 mph - N/A   Overcast
8:35 AM 31.6 °F 22.1 °F 29.7 °F 92% 30.00 in 7.0 mi NW 12.7 mph - N/A Snow Light Snow
8:55 AM 31.6 °F 21.6 °F 29.8 °F 93% 30.00 in 3.0 mi NW 13.8 mph - N/A Snow Light Snow
9:15 AM 31.8 °F 21.8 °F 30.0 °F 93% 30.01 in 4.0 mi NW 13.8 mph - N/A Snow Light Snow
9:35 AM 32.0 °F 22.5 °F 30.0 °F 92% 30.02 in 2.5 mi NW 12.7 mph - N/A Snow Light Snow
9:55 AM 32.0 °F 23.0 °F 30.2 °F 93% 30.02 in 3.0 mi NW 11.5 mph - N/A Snow Light Snow
10:15 AM 32.0 °F 23.6 °F 30.2 °F 93% 30.03 in 5.0 mi NW 10.4 mph - N/A Snow Light Snow
10:35 AM 32.0 °F 22.5 °F 30.6 °F 94% 30.03 in 7.0 mi WNW 12.7 mph - N/A   Overcast
10:55 AM 32.0 °F 23.0 °F 30.7 °F 95% 30.03 in 7.0 mi NW 11.5 mph - N/A   Overcast
11:15 AM 32.0 °F 22.5 °F 30.6 °F 94% 30.04 in 10.0 mi WNW 12.7 mph - N/A   Overcast
11:35 AM 32.0 °F 22.1 °F 30.2 °F 93% 30.04 in 7.0 mi NW 13.8 mph - N/A   Overcast
11:55 AM 32.2 °F 22.3 °F 30.0 °F 92% 30.04 in 10.0 mi NW 13.8 mph - N/A   Overcast
12:15 PM 32.2 °F 21.8 °F 30.2 °F 92% 30.04 in 10.0 mi NW 15.0 mph - N/A   Overcast
12:35 PM 32.0 °F 22.5 °F 30.2 °F 93% 30.04 in 10.0 mi NW 12.7 mph 18.4 mph N/A   Overcast
12:55 PM 32.9 °F 23.2 °F 29.7 °F 88% 30.04 in 10.0 mi NW 13.8 mph - N/A   Overcast
1:15 PM 33.1 °F 23.4 °F 29.8 °F 88% 30.04 in 10.0 mi NW 13.8 mph - N/A   Overcast
1:35 PM 32.9 °F 22.8 °F 30.2 °F 90% 30.04 in 10.0 mi NW 15.0 mph - N/A   Overcast
1:55 PM 32.9 °F 23.2 °F 30.0 °F 89% 30.05 in 10.0 mi NW 13.8 mph 18.4 mph N/A   Overcast
2:15 PM 32.9 °F 24.1 °F 30.2 °F 90% 30.05 in 10.0 mi NW 11.5 mph - N/A   Overcast
2:35 PM 33.1 °F 23.9 °F 30.2 °F 89% 30.05 in 10.0 mi NW 12.7 mph - N/A   Overcast
2:55 PM 33.1 °F 24.4 °F 30.0 °F 89% 30.06 in 10.0 mi NW 11.5 mph - N/A   Overcast
3:15 PM 33.1 °F 25.5 °F 30.2 °F 89% 30.06 in 10.0 mi NW 9.2 mph - N/A   Overcast
3:35 PM 32.9 °F 24.1 °F 30.2 °F 90% 30.07 in 10.0 mi NW 11.5 mph - N/A   Overcast
3:55 PM 32.9 °F 24.1 °F 30.0 °F 89% 30.07 in 10.0 mi NW 11.5 mph - N/A   Overcast
4:15 PM 32.5 °F 24.2 °F 30.2 °F 91% 30.08 in 10.0 mi NW 10.4 mph - N/A   Overcast
4:35 PM 32.4 °F 24.0 °F 30.2 °F 92% 30.08 in 10.0 mi NW 10.4 mph - N/A   Overcast
4:55 PM 32.4 °F 24.0 °F 30.2 °F 92% 30.08 in 10.0 mi NW 10.4 mph - N/A   Overcast
5:15 PM 32.4 °F 24.0 °F 30.6 °F 93% 30.08 in 5.0 mi NW 10.4 mph - N/A   Overcast
5:35 PM 32.0 °F 24.8 °F 30.9 °F 96% 30.09 in 4.0 mi NNW 8.1 mph - N/A Snow Light Snow
5:55 PM 32.0 °F 25.6 °F 31.5 °F 98% 30.09 in 2.0 mi NW 6.9 mph - N/A Snow Light Snow
6:15 PM 31.8 °F 25.4 °F 31.6 °F 99% 30.10 in 1.8 mi WNW 6.9 mph - N/A Snow Light Snow
6:35 PM 31.6 °F 24.4 °F 31.6 °F 100% 30.10 in 2.5 mi WNW 8.1 mph - N/A Snow Light Snow
6:55 PM 31.5 °F 24.9 °F 31.5 °F 100% 30.10 in 3.0 mi WNW 6.9 mph - 0.01 in Snow Light Snow
7:15 PM 31.5 °F 24.2 °F 31.5 °F 100% 30.10 in 3.0 mi WNW 8.1 mph - N/A Snow Light Snow
7:35 PM 31.1 °F 23.7 °F 31.1 °F 100% 30.10 in 4.0 mi WNW 8.1 mph - N/A Snow Light Snow
7:55 PM 31.1 °F 23.1 °F 31.1 °F 100% 30.10 in 4.0 mi WNW 9.2 mph - N/A Snow Light Snow
8:15 PM 31.1 °F 22.4 °F 31.1 °F 100% 30.10 in 5.0 mi NW 10.4 mph - N/A Snow Light Snow
8:35 PM 30.2 °F 21.9 °F 30.2 °F 100% 30.10 in 5.0 mi NW 9.2 mph - N/A Snow Light Snow
8:55 PM 30.9 °F 22.8 °F 30.7 °F 99% 30.11 in 5.0 mi NW 9.2 mph - N/A   Overcast
9:15 PM 30.7 °F 22.6 °F 30.6 °F 99% 30.10 in 5.0 mi NW 9.2 mph - N/A   Overcast
9:35 PM 30.6 °F 22.4 °F 30.0 °F 98% 30.11 in 7.0 mi NW 9.2 mph - N/A   Overcast
9:55 PM 30.2 °F 21.9 °F 29.8 °F 99% 30.11 in 7.0 mi NW 9.2 mph - N/A   Overcast
10:15 PM 29.8 °F 20.9 °F 29.3 °F 98% 30.11 in 7.0 mi NW 10.4 mph - N/A   Overcast
10:35 PM 29.3 °F 20.8 °F 28.9 °F 99% 30.11 in 7.0 mi NW 9.2 mph - N/A   Overcast
10:55 PM 29.3 °F 20.2 °F 28.8 °F 98% 30.11 in 7.0 mi NW 10.4 mph - N/A   Overcast
11:15 PM 29.3 °F 20.8 °F 28.6 °F 97% 30.11 in 7.0 mi NW 9.2 mph - N/A   Overcast
11:35 PM 29.3 °F 20.2 °F 28.4 °F 96% 30.10 in 5.0 mi NW 10.4 mph - N/A   Overcast
11:55 PM 28.9 °F 21.1 °F 28.4 °F 98% 30.10 in 4.0 mi NW 8.1 mph - N/A Snow Light Snow